Regional Weather Roundup
Issued by NWS

Home | Current Version | Previous Version | Text Only | Print | Product List | Glossary On
Versions: 1 2 3 4 5 6 7 8 9 10 11 12 13 14 15 16 17 18 19 20 21 22 23 24 25 26 27 28 29 30 31 32 33 34 35 36 37 38 39 40 41 42 43 44 45 46 47 48 49 50
000
ASUS43 KTOP 032359
RWRKS

WEATHER ROUNDUP FOR KANSAS
NATIONAL WEATHER SERVICE GOODLAND KS
700 PM CDT FRI JUL 03 2015

NOTE:  "FAIR" INDICATES FEW OR NO CLOUDS BELOW 12,000 FEET WITH NO
SIGNIFICANT WEATHER AND/OR OBSTRUCTIONS TO VISIBILITY.

KSZ001>006-013>018-027>032-041>047-040100-
NORTHWEST KANSAS

CITY           SKY/WX    TMP DP  RH WIND       PRES   REMARKS
GOODLAND       MOSUNNY   84  54  35 S5        30.00F
6HR MIN TEMP:  80; 6HR MAX TEMP:  87;

HAYS           MOSUNNY   82  57  42 E7        29.96F
HILL CITY      SUNNY     84  57  39 NE10      29.96F
6HR MIN TEMP:  80; 6HR MAX TEMP:  87;

RUSSELL        MOSUNNY   81  61  50 NE8       29.94F
6HR MIN TEMP:  78; 6HR MAX TEMP:  85;

$$

KSZ061>065-074>080-084>089-040100-
SOUTHWEST KANSAS

CITY           SKY/WX    TMP DP  RH WIND       PRES   REMARKS
DODGE CITY     CLOUDY    82  58  43 NE15      29.98R
6HR MIN TEMP:  80; 6HR MAX TEMP:  87;

ELKHART          N/A     80  57  45 SE23        N/A
GARDEN CITY    LGT RAIN  77  63  61 SE17      29.98S
6HR MIN TEMP:  71; 6HR MAX TEMP:  88; 6HR PCP: TRACE;

GREAT BEND     MOSUNNY   81  63  54 E7        29.95F
LIBERAL        MOSUNNY   82  66  57 SE10        N/A
$$

KSZ066>073-081>083-090>101-040100-
SOUTHEAST KANSAS

CITY           SKY/WX    TMP DP  RH WIND       PRES   REMARKS
CHANUTE        PTSUNNY   81  66  60 NE9       29.91S
6HR MIN TEMP:  75; 6HR MAX TEMP:  85; 6HR PCP:  0.02;

COFFEYVILLE    MOSUNNY   82  68  62 NE12      29.88F
6HR MIN TEMP:  81; 6HR MAX TEMP:  90;

HUTCHINSON     MOSUNNY   81  62  52 NE5       29.94S
6HR MIN TEMP:  79; 6HR MAX TEMP:  86;

MEDICINE LODGE   N/A     86  60  41 E10       29.92F
NEWTON         MOSUNNY   81  61  50 E7        29.97S
PARSONS        PTSUNNY   81  69  67 N6        29.91S
6HR MIN TEMP:  77; 6HR MAX TEMP:  87; 6HR PCP:  0.01;

WICHITA INTL   MOSUNNY   83  63  50 NE10      29.93S
6HR MIN TEMP:  80; 6HR MAX TEMP:  86;

WICHITA JABRA  SUNNY     81  64  56 NE8       29.93F
6HR MIN TEMP:  79; 6HR MAX TEMP:  84;

WINFIELD       SUNNY     82  64  54 NE13      29.92S
6HR MIN TEMP:  82; 6HR MAX TEMP:  88;

$$

KSZ007>012-019>026-033>040-048>060-102>105-040100-
NORTHEAST KANSAS

CITY           SKY/WX    TMP DP  RH WIND       PRES   REMARKS
CONCORDIA      MOSUNNY   79  62  56 NE7       29.96F
6HR MIN TEMP:  74; 6HR MAX TEMP:  80;

EMPORIA        SUNNY     79  64  60 NE8       29.93F
6HR MIN TEMP:  72; 6HR MAX TEMP:  80; 6HR PCP: TRACE;

LAWRENCE       SUNNY     78  57  48 N6        29.94S
6HR MIN TEMP:  76; 6HR MAX TEMP:  81;

MANHATTAN      SUNNY     80  61  52 NE10      29.94F
6HR MIN TEMP:  75; 6HR MAX TEMP:  83;

OLATHE IND     SUNNY     78  58  49 N10       29.94S
6HR MIN TEMP:  74; 6HR MAX TEMP:  81;

OLATHE EXE     SUNNY     78  57  48 NE7       29.93S
6HR MIN TEMP:  75; 6HR MAX TEMP:  80;

SALINA         SUNNY     83  60  45 NE9       29.93F
6HR MIN TEMP:  80; 6HR MAX TEMP:  86;

TOPEKA BILLARD SUNNY     79  57  46 NE6       29.94F
6HR MIN TEMP:  76; 6HR MAX TEMP:  81;

TOPEKA FORBES    N/A    N/A N/A N/A MISG      29.94F
$$


USA.gov is the U.S. government's official web portal to all federal, state and local government web resources and services.